DW8945 Weather Reports


Display with metric or nautical units.
time (UTC)temp
F
wind
direction
speed
MPH
gust
MPH
rain 1hr
in
rain 24hr
in
rain mn
in
humidity
%
barometer
mb
20260502193401 57 226 4.0 11.0 0.00 0.00 0.00 65 1009.5
20260502192848 56 224 5.0 10.0 0.00 0.00 0.00 67 1009.6
20260502192356 56 236 4.0 11.0 0.00 0.00 0.00 69 1009.7
20260502191900 56 232 4.0 11.0 0.00 0.00 0.00 70 1009.7
20260502191347 55 211 4.0 15.0 0.00 0.00 0.00 71 1009.8
20260502190855 55 226 4.0 15.0 0.00 0.00 0.00 71 1009.8
20260502190354 55 227 4.0 9.0 0.00 0.00 0.00 71 1009.8
20260502185845 55 234 4.0 8.0 0.00 0.00 0.00 71 1009.7
20260502185350 55 242 1.0 8.0 0.00 0.00 0.00 71 1009.8
20260502184855 55 297 4.0 9.0 0.00 0.00 0.00 71 1009.8
20260502184357 55 218 4.0 9.0 0.00 0.00 0.00 70 1009.8
20260502183844 55 115 4.0 9.0 0.00 0.00 0.00 70 1009.9
20260502183349 55 244 2.0 8.0 0.00 0.00 0.00 70 1009.9
20260502182424 56 254 5.0 12.0 0.00 0.00 0.00 67 1009.8
20260502181925 56 216 5.0 12.0 0.00 0.00 0.00 67 1009.9
20260502181409 56 232 5.0 13.0 0.00 0.00 0.00 66 1009.9
20260502180913 56 234 2.0 13.0 0.00 0.00 0.00 65 1009.9
20260502180352 56 217 5.0 13.0 0.00 0.00 0.00 64 1010.1
20260502170417 57 232 6.0 10.0 0.00 0.00 0.00 67 1010.3
20260502163846 56 292 2.0 5.0 0.00 0.00 0.00 71 1010.3
20260502163352 56 292 1.0 5.0 0.00 0.00 0.00 72 1010.2
20260502162917 56 292 2.0 5.0 0.00 0.00 0.00 73 1010.2
20260502162421 56 292 0.0 3.0 0.00 0.00 0.00 74 1010.2
20260502161905 56 292 1.0 5.0 0.00 0.00 0.00 74 1010.3
20260502161352 56 292 2.0 6.0 0.00 0.00 0.00 74 1010.3
20260502160858 55 292 4.0 6.0 0.00 0.00 0.00 76 1010.5
20260502160412 55 293 4.0 6.0 0.00 0.00 0.00 77 1010.5
20260502151846 56 341 3.0 5.0 0.00 0.00 0.00 80 1011.0
20260502151413 55 5 1.0 4.0 0.00 0.00 0.00 80 1010.7
20260502150900 55 5 0.0 3.0 0.00 0.00 0.00 82 1010.8
20260502150344 54 5 1.0 3.0 0.00 0.00 0.00 82 1010.9
20260502130401 49 338 1.0 3.0 0.00 0.01 0.00 83 1012.0
20260502123400 50 338 1.0 5.0 0.00 0.01 0.00 86 1011.9
20260502122906 51 310 2.0 4.0 0.00 0.01 0.00 86 1011.5
20260502122352 50 311 0.0 4.0 0.00 0.01 0.00 85 1011.3
20260502121918 50 311 1.0 5.0 0.00 0.01 0.00 85 1011.4
20260502121343 50 307 1.0 7.0 0.00 0.01 0.00 85 1011.5
20260502120849 50 309 3.0 7.0 0.00 0.01 0.00 85 1011.4
20260502120412 50 298 0.0 5.0 0.00 0.01 0.00 86 1011.1
20260502115920 50 295 1.0 5.0 0.00 0.01 0.00 86 1011.0
20260502115402 50 294 1.0 5.0 0.00 0.01 0.00 85 1010.9
20260502114846 50 272 2.0 5.0 0.00 0.01 0.00 85 1011.3
20260502114352 50 265 1.0 3.0 0.00 0.01 0.00 85 1011.0
20260502113857 50 266 0.0 6.0 0.00 0.01 0.00 85 1011.1
20260502113423 50 266 0.0 6.0 0.00 0.01 0.00 85 1011.2
20260502112847 50 235 1.0 3.0 0.00 0.01 0.00 84 1011.0
20260502112354 50 234 0.0 4.0 0.00 0.01 0.00 84 1010.9
20260502111859 50 234 1.0 4.0 0.00 0.01 0.00 84 1011.0
20260502111346 50 229 0.0 4.0 0.00 0.01 0.00 84 1011.0
20260502110851 50 229 2.0 6.0 0.00 0.01 0.00 83 1011.0
20260502110349 50 225 1.0 6.0 0.00 0.01 0.00 83 1011.0
20260502105857 50 229 4.0 6.0 0.00 0.01 0.00 82 1011.2
20260502105404 50 236 0.0 3.0 0.00 0.01 0.00 82 1010.7
20260502104848 50 234 2.0 4.0 0.00 0.01 0.00 82 1010.8
20260502104354 50 234 0.0 4.0 0.00 0.01 0.00 82 1010.6
20260502103901 49 240 1.0 3.0 0.00 0.01 0.00 82 1010.8
20260502103408 49 236 1.0 4.0 0.00 0.01 0.00 82 1010.6
20260502102853 49 236 1.0 4.0 0.00 0.01 0.00 82 1010.5
20260502102400 49 238 2.0 4.0 0.00 0.01 0.00 82 1010.6
20260502101922 49 238 1.0 3.0 0.00 0.01 0.00 82 1010.5
20260502101345 49 238 1.0 3.0 0.00 0.01 0.00 82 1010.3
20260502100913 49 238 0.0 3.0 0.00 0.01 0.00 82 1010.3
20260502100354 49 238 2.0 3.0 0.00 0.01 0.00 82 1010.4
20260502091401 49 239 0.0 4.0 0.00 0.01 0.00 78 1010.6
20260502090842 49 238 1.0 6.0 0.00 0.01 0.00 78 1010.7
20260502090342 49 232 2.0 6.0 0.00 0.01 0.00 77 1010.9
20260502071410 50 286 0.0 3.0 0.00 0.01 0.00 72 1010.1
20260502070853 50 286 1.0 3.0 0.00 0.01 0.00 72 1010.5
20260502070352 49 286 1.0 5.0 0.00 0.01 0.00 71 1010.6
20260502065901 49 284 1.0 5.0 0.00 0.01 0.00 71 1010.8
20260502065347 49 327 1.0 5.0 0.00 0.01 0.00 71 1010.8
20260502064851 49 254 1.0 5.0 0.00 0.01 0.00 70 1010.7
20260502064357 49 220 0.0 2.0 0.00 0.01 0.00 70 1010.6
20260502063900 48 220 0.0 1.0 0.00 0.01 0.00 69 1010.5
20260502063342 48 220 0.0 1.0 0.00 0.01 0.00 68 1010.3
20260502062849 48 220 0.0 0.0 0.00 0.01 0.00 68 1010.3
20260502062356 48 220 0.0 0.0 0.00 0.01 0.00 67 1010.2
20260502061859 48 220 0.0 1.0 0.00 0.01 0.00 67 1010.2
20260502061343 48 220 0.0 1.0 0.00 0.01 0.00 67 1010.3
20260502060911 48 220 0.0 1.0 0.00 0.01 0.00 67 1010.3
20260502060348 48 220 0.0 2.0 0.00 0.01 0.00 67 1010.2
20260502055859 48 220 0.0 2.0 0.00 0.01 0.00 67 1010.3
20260502055343 48 220 0.0 0.0 0.00 0.01 0.00 66 1010.4
20260502054847 48 220 0.0 0.0 0.00 0.01 0.00 66 1010.5
20260502054353 49 220 0.0 0.0 0.00 0.01 0.00 66 1010.4
20260502053900 49 220 0.0 0.0 0.00 0.01 0.00 66 1010.3
20260502053400 49 220 0.0 0.0 0.00 0.01 0.00 65 1010.4
20260502052843 49 220 0.0 0.0 0.00 0.01 0.00 65 1010.4
20260502052351 49 220 0.0 1.0 0.00 0.01 0.00 65 1010.4
20260502051918 49 220 0.0 1.0 0.00 0.01 0.00 65 1010.4
20260502051401 49 220 0.0 0.0 0.00 0.01 0.00 65 1010.4
20260502050845 49 220 0.0 0.0 0.00 0.01 0.00 65 1010.3
20260502050344 49 220 0.0 0.0 0.00 0.01 0.00 65 1010.3
20260502045855 49 220 0.0 0.0 0.00 0.01 0.00 65 1010.3
20260502045358 49 220 0.0 0.0 0.00 0.01 0.00 64 1010.4
20260502044920 49 220 0.0 1.0 0.00 0.01 0.00 64 1010.4
20260502044342 49 220 0.0 0.0 0.00 0.01 0.00 64 1010.5
20260502043911 50 220 0.0 0.0 0.00 0.01 0.00 63 1010.6
20260502043353 50 220 0.0 0.0 0.00 0.01 0.00 63 1010.6
20260502042857 50 220 0.0 0.0 0.00 0.01 0.00 64 1010.6
20260502042402 50 220 0.0 0.0 0.00 0.01 0.00 63 1010.6
20260502041843 50 220 0.0 0.0 0.00 0.01 0.00 63 1010.5
20260502041351 50 220 0.0 0.0 0.00 0.01 0.00 63 1010.5
20260502040856 50 220 0.0 0.0 0.00 0.01 0.00 63 1010.6
20260502040353 50 220 0.0 0.0 0.00 0.01 0.00 63 1010.6
20260502035857 50 220 0.0 1.0 0.00 0.01 0.01 63 1010.6
20260502035343 50 220 0.0 3.0 0.00 0.01 0.01 63 1010.6
20260502034848 51 220 0.0 3.0 0.00 0.01 0.01 64 1010.5
20260502034353 51 218 0.0 5.0 0.00 0.01 0.01 66 1010.6
20260502033858 51 218 0.0 5.0 0.00 0.01 0.01 66 1010.6
20260502033400 51 321 1.0 2.0 0.00 0.01 0.01 66 1010.7
20260502032845 51 321 0.0 0.0 0.00 0.01 0.01 65 1010.5
20260502032411 51 321 0.0 0.0 0.00 0.01 0.01 64 1010.3
20260502031855 51 321 0.0 0.0 0.00 0.01 0.01 65 1010.3
20260502031400 51 321 0.0 3.0 0.00 0.01 0.01 65 1010.2
20260502030902 51 321 0.0 3.0 0.00 0.01 0.01 66 1010.3
20260502030359 51 321 0.0 0.0 0.00 0.01 0.01 64 1010.2
20260502025848 51 321 0.0 0.0 0.00 0.01 0.01 64 1010.2
20260502025414 51 321 0.0 0.0 0.00 0.01 0.01 63 1010.2
20260502024916 52 321 0.0 0.0 0.00 0.01 0.01 63 1010.3
20260502024419 52 321 0.0 0.0 0.00 0.01 0.01 63 1010.3
20260502023901 52 321 0.0 0.0 0.00 0.01 0.01 62 1010.4
20260502023344 52 321 0.0 0.0 0.00 0.01 0.01 62 1010.3
20260502022850 52 321 0.0 0.0 0.00 0.01 0.01 61 1010.2
20260502022355 52 321 0.0 0.0 0.00 0.01 0.01 61 1010.2
20260502021856 53 321 0.0 0.0 0.00 0.01 0.01 60 1010.3
20260502021400 53 321 0.0 0.0 0.00 0.01 0.01 59 1010.2
20260502020843 53 321 0.0 0.0 0.00 0.01 0.01 58 1010.3
20260502020344 54 321 0.0 0.0 0.00 0.01 0.01 56 1010.2
20260502015909 54 321 0.0 0.0 0.00 0.01 0.01 55 1010.3
20260502015352 54 321 0.0 0.0 0.00 0.01 0.01 54 1010.2
20260502014851 54 321 0.0 0.0 0.00 0.01 0.01 54 1010.3
20260502014409 54 321 0.0 0.0 0.00 0.01 0.01 53 1010.2
20260502013855 55 321 0.0 0.0 0.00 0.01 0.01 53 1010.1
20260502013344 55 321 0.0 0.0 0.00 0.01 0.01 52 1010.1
20260502012851 55 321 0.0 0.0 0.00 0.01 0.01 51 1010.1
20260502012356 56 321 0.0 0.0 0.00 0.01 0.01 51 1010.0
20260502011859 56 321 0.0 0.0 0.00 0.01 0.01 50 1010.0
20260502011404 57 321 0.0 0.0 0.00 0.01 0.01 48 1009.9
20260502010848 57 321 0.0 0.0 0.00 0.01 0.01 47 1010.0
20260502010347 57 321 0.0 0.0 0.00 0.01 0.01 45 1010.0
20260502005852 58 321 0.0 0.0 0.00 0.01 0.01 44 1009.9
20260502005343 58 321 0.0 0.0 0.00 0.01 0.01 44 1009.8
20260502004902 58 321 0.0 0.0 0.00 0.01 0.01 42 1009.7
20260502004349 58 321 0.0 0.0 0.00 0.01 0.01 42 1009.7
20260502003856 59 321 0.0 0.0 0.00 0.01 0.01 40 1009.6
20260502003344 59 321 0.0 0.0 0.00 0.01 0.01 40 1009.6
20260502002849 59 321 0.0 0.0 0.00 0.01 0.01 39 1009.5
20260502002350 59 321 0.0 0.0 0.00 0.01 0.01 38 1009.5
20260502001907 60 321 0.0 0.0 0.00 0.01 0.01 38 1009.3
20260502001350 60 321 0.0 0.0 0.00 0.01 0.01 37 1009.2
20260502000856 60 321 0.0 0.0 0.00 0.01 0.01 37 1009.1
20260502000419 60 321 0.0 0.0 0.00 0.01 0.01 36 1009.0
20260501235846 60 321 0.0 2.0 0.00 0.01 0.01 36 1009.0
20260501235355 61 321 0.0 3.0 0.00 0.01 0.01 35 1008.8
20260501234916 61 321 0.0 3.0 0.00 0.01 0.01 35 1008.8
20260501234359 61 321 0.0 4.0 0.00 0.01 0.01 34 1008.7
20260501233907 61 321 1.0 5.0 0.00 0.01 0.01 34 1008.5
20260501233351 61 321 1.0 5.0 0.00 0.01 0.01 34 1008.5
20260501232858 62 321 2.0 5.0 0.00 0.01 0.01 34 1008.5
20260501232404 62 332 0.0 6.0 0.00 0.01 0.01 33 1008.3
20260501231849 62 325 1.0 6.0 0.00 0.01 0.01 33 1008.3
20260501231415 62 333 2.0 5.0 0.00 0.01 0.01 32 1008.2
20260501230903 63 299 1.0 5.0 0.00 0.01 0.01 32 1008.2
20260501230345 63 275 1.0 9.0 0.00 0.01 0.01 31 1008.1
20260501225913 64 329 4.0 9.0 0.00 0.01 0.01 31 1008.2
20260501225414 64 316 1.0 6.0 0.00 0.01 0.01 32 1008.1
20260501224858 64 312 2.0 6.0 0.00 0.01 0.01 31 1008.1
20260501224344 64 325 2.0 7.0 0.00 0.01 0.01 31 1008.0
20260501223850 64 288 2.0 11.0 0.00 0.01 0.01 30 1008.0
20260501223354 64 294 3.0 11.0 0.00 0.01 0.01 30 1007.9
20260501222841 64 339 3.0 9.0 0.00 0.01 0.01 31 1007.9
20260501222408 64 328 1.0 8.0 0.00 0.01 0.01 31 1007.8
20260501221851 65 58 3.0 9.0 0.00 0.01 0.01 31 1007.8
20260501221357 65 321 3.0 9.0 0.00 0.01 0.01 30 1007.8
20260501220904 65 323 4.0 8.0 0.00 0.01 0.01 30 1007.7
20260501220403 65 347 2.0 8.0 0.00 0.01 0.01 31 1007.7
20260501215851 65 335 0.0 8.0 0.00 0.01 0.01 31 1007.7
20260501215358 65 336 3.0 9.0 0.00 0.01 0.01 31 1007.7
20260501214841 65 329 2.0 9.0 0.00 0.01 0.01 30 1007.6
20260501214348 66 323 1.0 6.0 0.00 0.01 0.01 31 1007.5
20260501213853 66 348 3.0 7.0 0.00 0.01 0.01 30 1007.6
20260501213418 66 360 3.0 7.0 0.00 0.01 0.01 30 1007.5
20260501212842 66 304 4.0 9.0 0.00 0.01 0.01 30 1007.5
20260501212350 66 319 3.0 9.0 0.00 0.01 0.01 30 1007.4
20260501211856 65 325 0.0 5.0 0.00 0.01 0.01 30 1007.4
20260501211340 65 323 2.0 8.0 0.00 0.01 0.01 31 1007.4
20260501210909 65 244 2.0 13.0 0.00 0.01 0.01 31 1007.4
20260501210349 65 313 2.0 13.0 0.00 0.01 0.01 31 1007.4
20260501205900 65 300 3.0 9.0 0.00 0.01 0.01 31 1007.3
20260501205347 65 286 4.0 9.0 0.00 0.01 0.01 31 1007.3
20260501204910 65 5 2.0 7.0 0.00 0.01 0.01 31 1007.2
20260501204355 65 338 2.0 8.0 0.00 0.01 0.01 30 1007.2
20260501203842 65 296 5.0 8.0 0.00 0.01 0.01 30 1007.1
20260501203408 65 291 2.0 9.0 0.00 0.01 0.01 30 1007.1
20260501202913 65 350 4.0 9.0 0.00 0.01 0.01 31 1007.0
20260501202355 65 338 3.0 10.0 0.00 0.01 0.01 32 1006.9
20260501201858 65 301 3.0 10.0 0.00 0.01 0.01 32 1007.0
20260501201401 65 273 5.0 9.0 0.00 0.01 0.01 32 1007.1
20260501200925 64 360 4.0 7.0 0.00 0.01 0.01 33 1007.1
20260501200423 64 5 1.0 4.0 0.00 0.01 0.01 35 1007.1
20260501195852 63 300 1.0 6.0 0.00 0.01 0.01 35 1007.2
20260501195357 64 333 1.0 8.0 0.00 0.01 0.01 35 1007.2
20260501194919 64 320 3.0 8.0 0.00 0.01 0.01 34 1007.3
20260501194400 64 340 0.0 15.0 0.00 0.01 0.01 34 1007.2
20260501193905 64 263 4.0 15.0 0.00 0.01 0.01 34 1007.3